Regional Weather Roundup
Issued by NWS

Home | Current Version | Previous Version | Graphics & Text | Print | Product List | Glossary On
Versions: 1 2 3 4 5 6 7 8 9 10 11 12 13 14 15 16 17 18 19 20 21 22 23 24 25 26 27 28 29 30 31 32 33 34 35 36 37 38 39 40 41 42 43 44 45 46 47 48 49 50
000
ASUS43 KFSD 191702
RWRSD

WEATHER ROUNDUP FOR SOUTH DAKOTA
NATIONAL WEATHER SERVICE SIOUX FALLS SD
1100 AM CST MON FEB 19 2018

NOTE: "FAIR" INDICATES FEW OR NO CLOUDS BELOW 12,000 FEET WITH NO
SIGNIFICANT WEATHER AND/OR OBSTRUCTIONS TO VISIBILITY.


SDZ001>005-009-010-012>017-191800-
NORTHWEST AND NORTH CENTRAL SOUTH DAKOTA

CITY           SKY/WX    TMP DP  RH WIND       PRES   REMARKS
BUFFALO          N/A      1  -6  72 E12       29.97F WCI -16
FAITH            N/A      0  -4  83 N10       30.07R WCI -16
MOBRIDGE       CLOUDY     8  -3  61 N14       30.09F WCI  -8
$$

SDZ012>016-024>037-041>051-057-063-072>074-191800-
SOUTHWEST AND SOUTH CENTRAL SOUTH DAKOTA

CITY           SKY/WX    TMP DP  RH WIND       PRES   REMARKS
RAPID CTY ARPT SNOW       1  -4  79 N13       30.01R VSB 1/2 WCI -17
PIERRE         LGT SNOW   7   2  80 N17       30.07F WCI -12
CUSTER         LGT SNOW  -2  -9  72 CALM      29.73R VSB 3/4
ELLSWORTH AFB  BLWGSNOW   2  -3  81 N9        30.01  VSB 7/8 WCI -13
PHILIP         LGT SNOW   5   0  79 N18       30.06F VSB 1   WCI -15
PINE RIDGE     LGT SNOW   5  -2  72 N13       29.93F WCI -12
SPEARFISH      LGT SNOW   0  -6  78 NE7       29.96R WCI -13
WINNER         LGT SNOW   9   3  77 N17       30.00R WCI  -9
$$

SDZ004>011-016>023-039-040-191800-
NORTHEAST SOUTH DAKOTA

CITY           SKY/WX    TMP DP  RH WIND       PRES   REMARKS
ABERDEEN       CLOUDY    10   1  67 N26       30.10S WCI -11
WATERTOWN      CLOUDY     9   5  84 N25G33    29.95S WCI -12
BROOKINGS      LGT SNOW  12   8  84 N15G24    29.91F FOG     WCI  -4
SISSETON         N/A     10   5  80 N21G28    30.07F WCI  -9
$$

SDZ017-020-022-023-036>040-048>070-191800-
SOUTHEAST SOUTH DAKOTA

CITY           SKY/WX    TMP DP  RH WIND       PRES   REMARKS
SIOUX FALLS    FLURRIES  16  11  80 N16       29.88R WCI   1
HURON          CLOUDY    11   5  77 N21       30.02R WCI  -8
CHAMBERLAIN    LGT SNOW  11   7  83 NW18G24   30.00F WCI  -7
MITCHELL       CLOUDY    14   9  80 N22       30.00R WCI  -4
YANKTON        FLURRIES  16  12  84 N15       29.91R WCI   1
$$

ABBREVIATIONS USED IN REMARKS
   TC - TEMPERATURE IN CELSIUS
  WCI - WIND CHILL INDEX
   HX - HEAT INDEX
  VSB - VISIBILITY





USA.gov is the U.S. government's official web portal to all federal, state and local government web resources and services.